Wind_Speed
16 15 13 12 13 14 15 15 16 16 17 16 17 17 17 16 15 14 14 15 15 16 16 16 17 16 16 15 15 15 16 15 13 13 14 15 16 16 17 18 19 20
15 13 11 12 13 14 14 15 16 16 16 17 18 19 18 16 15 14 15 16 16 16 16 16 16 16 16 16 16 16 16 15 14 14 15 16 16 17 18 19 20 20
14 13 11 12 13 13 13 15 16 17 17 18 19 19 18 17 16 15 15 16 16 16 15 15 16 17 16 16 16 17 16 16 15 15 16 17 17 17 18 19 20 21
14 13 11 12 12 12 13 15 17 17 17 18 18 18 17 16 16 16 16 16 15 15 15 15 17 18 17 17 17 17 17 16 16 16 17 17 17 18 19 20 21 21
15 13 12 12 12 12 13 15 17 17 17 18 17 16 16 15 16 16 17 16 15 15 16 17 18 18 18 18 17 17 17 17 17 18 18 18 18 19 20 21 21 22
15 13 12 12 12 12 14 16 17 17 17 17 16 16 16 16 16 16 16 16 16 17 17 18 18 18 17 18 17 17 17 18 18 19 19 19 19 21 21 22 22 23
16 14 13 13 12 13 14 16 17 17 17 17 16 16 15 16 17 17 18 18 18 18 18 18 17 17 17 17 17 18 18 19 20 20 20 20 21 22 23 23 24 24
17 15 14 13 13 13 14 15 17 18 18 18 17 17 17 18 19 19 19 18 18 17 17 16 16 16 17 17 17 19 19 20 21 21 21 21 22 23 24 25 25 26
17 16 15 14 13 12 14 16 17 18 19 18 18 18 18 19 20 19 18 17 16 16 16 16 16 16 17 17 18 20 20 21 23 23 23 23 24 25 25 26 27 27
18 17 16 14 12 12 14 16 17 18 19 19 19 19 18 19 19 17 16 15 15 15 15 15 16 16 17 18 19 20 21 23 24 25 25 25 25 26 27 28 28 28
18 17 16 14 12 12 14 16 17 18 19 19 19 18 17 17 17 15 14 14 14 14 15 16 17 17 18 19 20 21 22 24 25 26 26 27 27 28 29 29 29 29
18 17 16 14 12 12 14 17 18 18 19 19 19 18 18 17 15 13 13 13 14 15 15 16 18 18 19 20 21 22 23 25 26 27 28 28 29 30 30 31 31 31
18 17 16 14 12 13 15 17 18 18 18 19 19 19 18 16 13 12 12 13 14 15 16 18 19 19 20 22 22 23 24 25 26 28 29 30 31 31 32 32 32 33
17 17 15 13 13 13 15 17 19 19 19 19 19 18 16 14 12 12 13 14 15 16 17 19 20 21 22 23 24 24 25 26 27 28 30 31 32 33 34 34 35 35
17 15 14 14 13 14 16 18 19 18 18 18 17 16 15 13 13 13 14 15 16 17 19 21 22 23 24 25 25 26 26 27 28 29 30 32 33 35 35 36 37 36
16 15 14 14 14 15 17 19 18 17 18 18 17 16 15 14 14 15 16 17 18 19 21 23 24 25 26 27 28 28 29 30 30 30 32 33 35 36 36 37 38 37
16 15 14 14 15 16 18 19 17 17 17 17 17 16 16 15 15 17 18 19 19 21 22 24 26 26 27 29 30 30 31 32 32 32 34 35 36 37 38 39 39 38
17 16 15 15 16 17 18 18 16 16 17 18 18 18 17 17 17 18 20 21 21 22 24 25 28 28 29 31 32 33 34 35 35 35 36 37 38 39 39 39 38 38
17 16 16 17 18 18 18 17 16 16 17 18 19 19 19 19 20 21 22 22 23 23 25 27 29 30 30 32 33 34 36 36 37 38 39 40 40 41 41 39 37 37
17 16 17 18 19 18 18 18 17 17 18 19 20 20 20 21 22 23 24 24 25 25 25 27 29 30 30 31 33 34 35 37 38 39 41 42 43 44 44 40 36 35
17 17 18 19 19 18 18 18 18 19 19 20 21 21 22 23 24 25 25 25 26 25 26 27 29 30 30 30 31 32 34 37 38 37 37 37 39 43 45 43 38 35
19 18 19 19 19 19 20 20 20 21 21 21 22 23 24 25 26 26 26 26 26 25 26 27 29 29 29 30 32 33 33 33 32 30 31 34 37 41 43 43 39 36
22 21 21 20 20 21 22 22 22 22 23 23 24 25 26 26 26 26 26 26 26 25 26 27 28 29 30 31 31 31 31 30 29 28 29 32 36 37 38 38 36 35
25 24 23 23 23 24 24 24 24 24 24 25 26 26 27 27 27 27 27 27 26 27 28 27 26 28 31 31 30 29 30 30 30 30 30 30 31 31 31 31 32 34
27 27 27 26 25 26 26 26 26 26 26 26 27 27 27 28 28 29 28 28 28 28 27 26 25 28 31 32 32 33 32 31 31 31 31 30 29 28 27 28 30 33
28 29 28 26 25 26 27 27 27 27 27 27 27 27 28 28 29 29 29 29 28 27 26 26 27 30 33 34 34 34 34 33 33 33 32 31 29 28 28 30 32 34
Wind_Direction
259 261 264 269 274 277 280 281 281 280 281 283 285 288 290 287 283 279 273 266 260 259 259 258 259 261 262 263 263 259 259 262 267 271 278 284 291 298 303 306 309 312
255 259 262 268 273 276 279 281 281 280 282 285 288 290 290 287 280 272 266 262 258 257 256 256 258 262 264 265 261 256 257 260 264 269 275 282 290 296 301 304 307 311
252 256 261 267 272 275 279 281 281 283 286 288 288 289 290 285 275 268 263 260 256 253 252 253 259 265 267 264 257 254 256 259 263 268 274 281 289 295 299 303 306 310
251 255 261 267 271 275 279 282 284 288 290 288 287 288 287 281 271 267 266 264 259 253 252 255 262 266 265 258 253 253 256 260 263 268 273 281 289 294 298 302 305 308
251 255 261 267 271 276 280 283 287 290 290 288 286 287 283 277 272 270 270 269 264 258 257 260 264 264 259 252 251 254 259 262 264 268 273 282 289 294 297 301 304 306
253 256 262 267 271 276 280 284 288 291 291 288 286 285 281 277 273 271 269 269 265 261 260 262 262 258 252 250 252 258 262 264 266 269 275 282 289 293 296 299 302 305
256 258 263 266 270 275 280 285 289 292 291 289 287 283 279 276 273 272 271 268 264 261 262 261 258 253 250 252 257 261 264 266 267 270 275 282 288 292 295 299 301 303
259 261 263 265 269 275 280 284 288 292 292 291 289 284 279 276 276 275 272 266 262 262 263 261 257 253 253 257 263 266 268 269 269 271 276 281 286 290 295 298 300 301
261 261 262 264 268 275 280 283 286 290 292 292 291 287 283 280 278 275 270 264 262 264 264 261 257 255 259 264 269 271 272 272 271 273 276 280 284 290 295 297 298 300
260 260 260 262 267 273 279 282 284 288 291 292 291 289 287 283 278 273 267 263 262 263 261 259 257 260 266 271 274 276 276 274 273 274 276 279 284 288 293 296 297 299
257 258 259 259 264 272 277 280 282 285 288 289 290 289 287 282 275 269 264 262 262 260 259 258 259 264 270 274 277 279 278 276 274 275 276 280 284 287 291 294 296 298
256 256 257 258 262 268 274 278 280 282 284 285 286 287 285 281 275 268 265 263 261 260 259 260 263 268 273 277 280 281 280 278 277 278 279 281 284 286 289 291 294 296
255 256 257 258 261 266 272 276 277 277 278 279 281 283 284 284 279 273 268 264 263 262 262 264 268 272 276 280 282 283 283 283 282 282 282 282 284 285 287 289 291 292
255 257 259 260 261 265 270 272 273 272 272 274 277 281 285 285 281 274 269 267 266 266 267 269 271 274 277 280 282 284 284 285 284 284 283 283 284 284 285 287 288 290
256 260 262 261 262 264 266 268 268 267 267 270 274 278 281 280 277 275 273 273 272 272 272 273 274 276 278 280 282 284 284 284 284 284 283 283 282 283 284 285 286 288
259 263 263 262 263 264 264 265 263 260 262 265 269 273 274 274 274 273 273 274 275 276 276 277 278 279 281 282 283 284 284 283 283 283 283 282 282 282 283 283 285 287
260 262 261 261 263 263 263 262 257 254 257 261 264 267 269 270 272 271 272 272 273 275 276 278 280 282 283 283 284 284 284 283 283 282 281 281 281 282 282 282 285 287
258 259 259 260 261 261 260 257 252 249 253 258 261 263 266 269 271 271 273 273 273 274 275 277 279 279 280 281 282 282 283 283 283 282 281 281 282 281 281 282 285 288
256 256 257 257 257 257 254 251 248 247 250 256 260 263 266 268 269 271 272 273 274 274 275 276 278 279 280 281 282 283 283 283 283 282 281 283 283 283 282 283 287 291
254 253 252 253 253 253 250 249 248 248 251 257 261 263 265 267 269 271 271 272 273 274 276 278 279 281 283 284 285 285 285 286 285 285 286 287 288 288 286 286 289 293
251 248 248 250 251 250 249 250 251 252 254 259 262 263 265 267 270 271 272 273 274 275 278 280 281 283 284 286 288 289 291 293 291 290 292 292 293 294 292 289 288 292
250 249 250 251 252 252 252 254 255 255 257 260 261 262 264 267 269 272 273 274 276 277 278 278 281 285 287 289 291 293 297 301 300 296 295 295 295 296 294 290 286 290
253 254 256 258 257 257 258 259 259 258 258 259 260 262 264 268 271 273 274 275 275 276 275 276 281 287 288 290 293 294 297 303 306 304 301 298 297 296 293 290 287 290
257 261 264 266 266 265 265 264 263 261 259 259 261 263 265 269 271 272 273 273 273 273 275 278 283 287 289 292 295 296 296 299 302 302 300 299 299 298 294 289 286 287
263 265 265 266 270 271 269 267 266 264 262 262 263 264 265 268 269 271 272 273 274 276 279 283 286 288 291 295 296 295 294 295 296 298 297 295 296 296 294 289 285 286
268 268 264 264 270 272 268 267 269 268 265 264 263 263 265 267 270 272 273 274 276 279 281 284 287 288 290 292 292 292 292 292 294 296 295 294 294 293 292 291 291 292
Height
5807 5807 5808 5808 5808 5808 5808 5808 5808 5807 5807 5808 5807 5807 5807 5807 5807 5807 5807 5807 5807 5807 5808 5808 5809 5809 5810 5810 5810 5811 5811 5811 5811 5810 5810 5810 5809 5809 5808 5807 5806 5805
5804 5805 5805 5806 5806 5806 5806 5806 5805 5805 5806 5805 5805 5804 5804 5804 5804 5805 5805 5805 5805 5805 5806 5806 5807 5807 5807 5808 5808 5809 5809 5809 5809 5808 5808 5808 5807 5806 5806 5805 5804 5802
5802 5803 5803 5803 5803 5803 5803 5803 5803 5803 5803 5803 5802 5802 5802 5802 5802 5802 5803 5803 5803 5803 5803 5804 5805 5805 5805 5806 5806 5807 5807 5807 5806 5806 5806 5805 5805 5804 5803 5802 5801 5800
5800 5800 5801 5801 5801 5801 5801 5801 5801 5801 5801 5800 5799 5799 5800 5800 5800 5800 5801 5801 5801 5801 5802 5802 5802 5803 5803 5804 5804 5804 5804 5804 5804 5804 5803 5803 5802 5802 5801 5800 5799 5798
5797 5798 5799 5799 5799 5799 5799 5799 5799 5799 5798 5797 5797 5797 5798 5797 5798 5798 5798 5798 5799 5799 5800 5800 5800 5801 5801 5801 5802 5802 5802 5802 5801 5801 5801 5801 5800 5800 5799 5798 5797 5795
5795 5796 5796 5796 5796 5796 5796 5796 5796 5796 5796 5795 5795 5796 5796 5796 5796 5796 5796 5797 5797 5797 5798 5798 5798 5798 5799 5799 5800 5800 5800 5799 5799 5799 5798 5798 5798 5797 5796 5795 5794 5793
5792 5793 5794 5794 5794 5794 5794 5794 5794 5794 5794 5793 5794 5794 5794 5794 5795 5795 5795 5795 5795 5795 5795 5795 5796 5796 5796 5797 5797 5797 5797 5797 5797 5796 5796 5796 5795 5795 5794 5793 5791 5790
5789 5790 5791 5791 5792 5792 5792 5792 5792 5792 5792 5792 5792 5792 5792 5793 5793 5793 5792 5793 5793 5793 5793 5793 5794 5794 5794 5795 5795 5795 5795 5795 5794 5794 5794 5793 5793 5792 5791 5790 5789 5788
5787 5787 5788 5789 5789 5790 5790 5790 5790 5790 5790 5790 5790 5789 5790 5790 5790 5790 5790 5790 5790 5791 5791 5791 5792 5792 5792 5793 5793 5793 5793 5793 5792 5792 5791 5791 5790 5789 5789 5787 5786 5785
5784 5785 5786 5786 5787 5787 5787 5787 5788 5788 5788 5787 5787 5787 5787 5787 5787 5787 5787 5788 5788 5788 5789 5789 5790 5790 5790 5791 5791 5791 5791 5790 5789 5789 5788 5788 5787 5787 5786 5785 5783 5782
5781 5782 5783 5784 5785 5785 5785 5785 5785 5786 5786 5785 5785 5785 5784 5784 5784 5784 5785 5785 5785 5786 5787 5787 5787 5788 5788 5788 5788 5788 5788 5787 5786 5786 5785 5785 5784 5784 5783 5782 5780 5779
5779 5780 5781 5782 5782 5783 5783 5782 5783 5783 5783 5783 5782 5782 5782 5781 5781 5782 5782 5783 5783 5784 5784 5785 5785 5786 5786 5786 5785 5785 5785 5784 5783 5783 5782 5782 5781 5780 5780 5778 5777 5776
5776 5777 5778 5779 5780 5780 5780 5780 5780 5780 5780 5780 5780 5779 5779 5779 5780 5780 5780 5781 5781 5782 5782 5782 5783 5783 5783 5783 5783 5782 5782 5781 5780 5780 5779 5778 5778 5777 5776 5775 5774 5772
5774 5775 5776 5777 5777 5778 5778 5778 5778 5778 5777 5777 5777 5777 5777 5777 5778 5778 5778 5779 5779 5780 5780 5780 5780 5780 5780 5779 5779 5779 5778 5778 5777 5777 5776 5775 5774 5773 5772 5771 5769 5768
5771 5772 5773 5774 5774 5775 5775 5775 5775 5775 5775 5775 5775 5775 5775 5775 5775 5776 5776 5777 5777 5777 5777 5777 5777 5777 5777 5776 5776 5776 5775 5774 5773 5773 5772 5771 5770 5769 5768 5767 5765 5764
5769 5770 5770 5771 5771 5772 5772 5772 5772 5772 5772 5772 5773 5773 5773 5773 5773 5773 5774 5774 5774 5775 5774 5774 5774 5774 5773 5773 5772 5772 5771 5770 5769 5769 5768 5767 5766 5765 5764 5762 5760 5759
5766 5767 5768 5768 5768 5769 5769 5769 5769 5770 5770 5770 5770 5770 5770 5771 5771 5771 5771 5771 5772 5772 5771 5771 5770 5770 5770 5769 5768 5768 5767 5766 5765 5765 5763 5763 5761 5760 5759 5757 5756 5755
5764 5764 5765 5765 5765 5765 5766 5766 5766 5767 5767 5767 5767 5768 5768 5768 5768 5768 5768 5768 5769 5768 5768 5767 5766 5766 5765 5765 5764 5764 5763 5762 5761 5760 5759 5758 5757 5755 5754 5752 5751 5751
5760 5761 5761 5762 5762 5762 5763 5763 5764 5764 5764 5765 5765 5765 5765 5765 5765 5765 5765 5765 5765 5765 5764 5763 5762 5761 5761 5761 5760 5759 5758 5758 5757 5756 5755 5754 5752 5750 5749 5748 5747 5746
5757 5758 5758 5758 5759 5759 5760 5761 5761 5762 5762 5762 5762 5762 5762 5762 5762 5762 5762 5762 5761 5761 5760 5759 5758 5758 5758 5757 5756 5755 5754 5753 5752 5751 5750 5749 5747 5745 5744 5743 5742 5741
5754 5755 5755 5755 5756 5756 5757 5758 5758 5759 5759 5759 5759 5759 5759 5759 5759 5758 5758 5758 5758 5758 5757 5756 5755 5754 5754 5753 5751 5750 5750 5748 5747 5746 5745 5744 5742 5741 5739 5738 5737 5736
5751 5752 5752 5752 5753 5754 5754 5755 5755 5756 5756 5756 5756 5756 5755 5755 5755 5755 5755 5754 5754 5754 5754 5752 5751 5750 5749 5748 5747 5747 5746 5744 5743 5741 5741 5739 5738 5736 5734 5733 5732 5731
5747 5748 5749 5749 5750 5750 5751 5751 5752 5752 5753 5753 5752 5752 5752 5752 5751 5751 5751 5751 5751 5751 5750 5749 5748 5747 5745 5744 5744 5743 5742 5740 5739 5737 5736 5735 5733 5731 5729 5728 5727 5727
5744 5745 5745 5746 5746 5747 5747 5747 5748 5748 5749 5749 5748 5748 5748 5748 5748 5747 5747 5747 5747 5746 5745 5745 5745 5743 5741 5740 5740 5739 5738 5737 5736 5734 5733 5731 5730 5728 5726 5724 5724 5723
5741 5741 5741 5741 5742 5742 5743 5743 5744 5745 5745 5745 5745 5745 5744 5744 5744 5743 5743 5743 5742 5742 5742 5741 5741 5739 5737 5736 5735 5734 5734 5733 5731 5730 5729 5727 5726 5724 5722 5721 5720 5719
5737 5736 5736 5737 5738 5738 5739 5739 5740 5741 5741 5741 5741 5741 5741 5740 5740 5740 5739 5739 5738 5738 5738 5738 5737 5735 5733 5732 5731 5730 5729 5728 5727 5725 5724 5722 5721 5720 5718 5717 5715 5714